Terug naar catalogus

ATLAS 2 CENTAUR R/B

ActiefHEO
NORAD 23468·ROCKET BODY·🇺🇸 United States

Gelanceerd Jan 29, 1995 vanaf Cape Canaveral Space Force Station

Loading…

Volgende Passages (komende 24 uur)

TLE

VersSource: Space-Track

Epoch: Sep 14, 2026, 04:53 UTC

1 23468U 95003B   26257.20380568  .00006173  00000-0  11088-2 0  9991
2 23468  26.5977 181.6238 5684058  83.9486 334.6076  4.52415360421639

Volg ATLAS 2 CENTAUR R/B in realtime met AllMySat

Download on the App Store